{"data":{"norad_id":46790,"intl_designator":"2020-074BD","name":"STARLINK-1931","alt_names":[],"object_type":"PAYLOAD","status":"ACTIVE","operator":null,"country":"US","launch_date":"2020-10-24","launch_site_code":"AFETR","launch_vehicle":null,"mission":null,"orbit_class":"UNKNOWN","rcs_meters":null,"size_class":null,"mass_kg":null,"dimensions":null,"purposes":["comms"],"wikipedia_slug":null,"has_3d_model":false,"image_url":null,"decayed_at":null,"tle_current":{"epoch":"2026-06-26T23:50:31.036992Z","epoch_age_seconds":7409773,"freshness":"OLD","line1":"1 46790U 20074BD  26177.99341478  .11156814  12430-4  37036-3 0  9990","line2":"2 46790  53.0208  93.0154 0009403 254.3773 105.6237 16.43936910314515","mean_motion":16.4393691,"eccentricity":0.0009403,"inclination_deg":53.0208,"raan_deg":93.0154,"arg_perigee_deg":254.3773,"mean_anomaly_deg":105.6237,"bstar":0.00037036,"rev_number":31451,"period_min":87.594602398702,"perigee_km":149.20724950421,"apogee_km":161.49412645022,"semimajor_km":6533.4876879772,"source":"CELESTRAK","updated_at":"2026-06-27T09:00:37.713903Z"}}}